Location: White Ridge parking lot
(35.4984°N, 106.8413°W)
Time: 18:35:20
(UTC-06:00)

ITAMSAT 1 - Pass Details

Date: 19 September 2019
Orbit: 784 x 797 km, 98.9° (Epoch: 13 October)

Event Time Altitude Azimuth Distance (km) Brightness Sun altitude
Rises 05:43:48 0° 24° (NNE) 3,277 11.4 -14.8°
Reaches altitude 10° 05:46:21 10° 34° (NNE) 2,346 10.8 -14.3°
Maximum altitude 05:51:00 34° 98° (E) 1,285 9.5 -13.3°
Drops below altitude 10° 05:55:39 10° 162° (SSE) 2,339 10.2 -12.4°
Sets 05:58:10 0° 172° (S) 3,266 10.8 -11.9°
